{"data":{"norad_id":58593,"epoch":"2026-05-25T03:16:59.926080Z","epoch_age_seconds":60351,"freshness":"FRESH","line1":"1 58593U 23200E   26145.13680470  .00000296  00000+0  20299-4 0  9996","line2":"2 58593  43.0027  97.0210 0001281 289.0088  71.0625 15.27579092135304","mean_motion":15.27579092,"eccentricity":0.0001281,"inclination_deg":43.0027,"raan_deg":97.021,"arg_perigee_deg":289.0088,"mean_anomaly_deg":71.0625,"bstar":2.0299e-5,"rev_number":13530,"period_min":94.266804746238,"perigee_km":482.17289663246,"apogee_km":483.93073320684,"semimajor_km":6861.1888149197,"source":"CELESTRAK","updated_at":"2026-05-25T13:38:18.665636Z"}}